DW5204 Weather Reports


time (UTC)temp
C
wind
direction
speed
KPH
gust
KPH
rain 1hr
cm
rain 24hr
cm
rain mn
cm
humidity
%
barometer
mb
20260906231015 37 115 4.8 8.0 0.00 0.00 0.00 40 1011.4
20260906230514 36 82 14.5 16.1 0.00 0.00 0.00 40 1011.2
20260906230013 36 94 4.8 8.0 0.00 0.00 0.00 41 1011.2
20260906225507 37 119 8.0 14.5 0.00 0.00 0.00 40 1011.3
20260906225004 38 85 0.0 1.6 0.00 0.00 0.00 39 1011.2
20260906224459 37 156 8.0 9.7 0.00 0.00 0.00 40 1011.1
20260906223955 37 83 0.0 0.0 0.00 0.00 0.00 40 1011.3
20260906223451 36 116 11.3 12.9 0.00 0.00 0.00 41 1011.3
20260906222949 37 239 12.9 22.5 0.00 0.00 0.00 41 1011.3
20260906222444 38 139 11.3 12.9 0.00 0.00 0.00 39 1011.3
20260906221941 39 85 4.8 8.0 0.00 0.00 0.00 37 1011.6
20260906221441 38 83 0.0 1.6 0.00 0.00 0.00 39 1011.3
20260906220937 37 178 4.8 8.0 0.00 0.00 0.00 39 1011.3
20260906220432 38 106 6.4 12.9 0.00 0.00 0.00 38 1011.3
20260906215931 38 131 11.3 14.5 0.00 0.00 0.00 39 1011.2
20260906215425 38 109 0.0 1.6 0.00 0.00 0.00 38 1011.3
20260906214923 37 175 11.3 14.5 0.00 0.00 0.00 39 1011.5
20260906214423 38 112 6.4 9.7 0.00 0.00 0.00 39 1011.4
20260906213922 37 90 4.8 8.0 0.00 0.00 0.00 39 1011.4
20260906213417 37 168 12.9 16.1 0.00 0.00 0.00 40 1011.6
20260906212914 37 84 4.8 4.8 0.00 0.00 0.00 41 1011.6
20260906212410 36 120 9.7 12.9 0.00 0.00 0.00 42 1011.8
20260906211910 37 107 9.7 11.3 0.00 0.00 0.00 41 1011.8
20260906211405 37 119 8.0 9.7 0.00 0.00 0.00 40 1011.7
20260906210859 37 71 4.8 9.7 0.00 0.00 0.00 40 1012.1
20260906210355 37 106 4.8 8.0 0.00 0.00 0.00 42 1012.0
20260906205849 36 118 9.7 14.5 0.00 0.00 0.00 42 1011.9
20260906205346 37 86 9.7 14.5 0.00 0.00 0.00 42 1012.1
20260906204841 36 116 6.4 8.0 0.00 0.00 0.00 42 1012.6
20260906204340 37 65 3.2 3.2 0.00 0.00 0.00 42 1012.2
20260906203839 37 106 8.0 11.3 0.00 0.00 0.00 42 1012.3
20260906203335 38 92 3.2 4.8 0.00 0.00 0.00 39 1012.4
20260906202832 37 85 1.6 3.2 0.00 0.00 0.00 43 1012.3
20260906202326 36 91 1.6 3.2 0.00 0.00 0.00 41 1012.4
20260906201821 37 115 12.9 17.7 0.00 0.00 0.00 42 1012.7
20260906201320 36 74 4.8 8.0 0.00 0.00 0.00 44 1012.8
20260906200816 35 106 6.4 11.3 0.00 0.00 0.00 46 1012.8
20260906200312 36 100 8.0 11.3 0.00 0.00 0.00 44 1012.8
20260906195807 36 82 6.4 9.7 0.00 0.00 0.00 46 1012.9
20260906195306 36 98 4.8 8.0 0.00 0.00 0.00 46 1012.9
20260906194759 37 98 1.6 4.8 0.00 0.00 0.00 44 1013.0
20260906194254 37 112 16.1 17.7 0.00 0.00 0.00 43 1012.9
20260906193749 37 191 6.4 8.0 0.00 0.00 0.00 41 1013.0
20260906193243 37 166 6.4 11.3 0.00 0.00 0.00 43 1013.2
20260906192740 38 125 1.6 1.6 0.00 0.00 0.00 43 1013.2
20260906192234 37 77 3.2 4.8 0.00 0.00 0.00 43 1013.4
20260906191733 37 176 11.3 14.5 0.00 0.00 0.00 42 1013.3
20260906191228 37 159 11.3 12.9 0.00 0.00 0.00 44 1013.4
20260906190722 36 168 8.0 11.3 0.00 0.00 0.00 47 1013.3
20260906190216 36 88 9.7 12.9 0.00 0.00 0.00 45 1013.4
20260906185716 36 133 11.3 12.9 0.00 0.00 0.00 47 1013.5
20260906185215 36 109 4.8 4.8 0.00 0.00 0.00 44 1013.3
20260906184709 36 105 8.0 12.9 0.00 0.00 0.00 47 1013.6
20260906184205 35 89 3.2 4.8 0.00 0.00 0.00 47 1013.4
20260906183701 35 104 8.0 11.3 0.00 0.00 0.00 46 1013.5
20260906183157 35 100 19.3 24.1 0.00 0.00 0.00 46 1013.7
20260906182656 36 113 12.9 14.5 0.00 0.00 0.00 43 1013.8
20260906182153 36 146 3.2 4.8 0.00 0.00 0.00 43 1014.0
20260906181648 36 122 8.0 11.3 0.00 0.00 0.00 44 1014.0
20260906181144 36 94 3.2 4.8 0.00 0.00 0.00 45 1014.0
20260906180638 37 181 14.5 16.1 0.00 0.00 0.00 42 1014.1
20260906180133 36 89 12.9 17.7 0.00 0.00 0.00 46 1014.0
20260906175631 36 66 6.4 9.7 0.00 0.00 0.00 47 1014.1
20260906175126 36 145 3.2 4.8 0.00 0.00 0.00 47 1014.3
20260906174624 36 158 9.7 12.9 0.00 0.00 0.00 46 1014.3
20260906174119 36 167 11.3 14.5 0.00 0.00 0.00 46 1014.3
20260906173615 37 180 14.5 16.1 0.00 0.00 0.00 44 1014.7
20260906173110 36 142 6.4 9.7 0.00 0.00 0.00 48 1014.7
20260906172610 37 6 4.8 8.0 0.00 0.00 0.00 46 1014.3
20260906172106 36 141 6.4 8.0 0.00 0.00 0.00 46 1014.8
20260906171605 35 80 3.2 4.8 0.00 0.00 0.00 50 1014.9
20260906171101 36 114 3.2 3.2 0.00 0.00 0.00 46 1014.9
20260906170556 37 180 14.5 20.9 0.00 0.00 0.00 46 1014.9
20260906170055 36 194 4.8 4.8 0.00 0.00 0.00 48 1015.0
20260906165552 35 144 6.4 11.3 0.00 0.00 0.00 50 1015.0
20260906165047 35 80 3.2 3.2 0.00 0.00 0.00 50 1015.1
20260906164546 36 125 4.8 4.8 0.00 0.00 0.00 48 1014.9
20260906164042 36 239 4.8 8.0 0.00 0.00 0.00 50 1015.0
20260906163537 35 121 4.8 4.8 0.00 0.00 0.00 52 1015.1
20260906163033 35 127 1.6 8.0 0.00 0.00 0.00 51 1015.2
20260906162530 33 169 3.2 3.2 0.00 0.00 0.00 52 1015.1
20260906162025 34 145 11.3 12.9 0.00 0.00 0.00 52 1014.9
20260906161520 35 240 1.6 3.2 0.00 0.00 0.00 52 1014.9
20260906161019 33 60 4.8 8.0 0.00 0.00 0.00 54 1014.9
20260906160518 33 72 3.2 8.0 0.00 0.00 0.00 55 1015.1
20260906160017 33 124 6.4 11.3 0.00 0.00 0.00 54 1015.1
20260906155514 33 72 4.8 9.7 0.00 0.00 0.00 54 1014.9
20260906155011 33 102 1.6 4.8 0.00 0.00 0.00 54 1015.0
20260906154506 33 78 0.0 0.0 0.00 0.00 0.00 54 1014.8
20260906154004 33 89 0.0 0.0 0.00 0.00 0.00 56 1014.8
20260906153503 32 151 4.8 4.8 0.00 0.00 0.00 58 1015.1
20260906152959 33 93 3.2 3.2 0.00 0.00 0.00 57 1014.8
20260906152453 32 112 6.4 9.7 0.00 0.00 0.00 59 1014.9
20260906151953 33 80 1.6 3.2 0.00 0.00 0.00 58 1014.8
20260906151448 32 155 8.0 11.3 0.00 0.00 0.00 60 1014.5
20260906150943 33 71 3.2 4.8 0.00 0.00 0.00 60 1014.7
20260906150438 32 116 1.6 1.6 0.00 0.00 0.00 61 1014.6
20260906145932 32 120 3.2 3.2 0.00 0.00 0.00 62 1014.6
20260906145432 31 76 1.6 1.6 0.00 0.00 0.00 63 1014.6
20260906144926 31 113 1.6 3.2 0.00 0.00 0.00 65 1014.6
20260906144421 31 27 4.8 4.8 0.00 0.00 0.00 65 1014.6
20260906143917 32 90 3.2 3.2 0.00 0.00 0.00 64 1014.7
20260906143412 31 94 0.0 0.0 0.00 0.00 0.00 66 1014.5
20260906142908 31 87 0.0 1.6 0.00 0.00 0.00 65 1014.8
20260906142407 31 60 0.0 1.6 0.00 0.00 0.00 66 1014.7
20260906141902 31 86 0.0 1.6 0.00 0.00 0.00 65 1014.7
20260906141402 31 89 0.0 0.0 0.00 0.00 0.00 67 1014.8
20260906140856 30 91 0.0 0.0 0.00 0.00 0.00 68 1015.0
20260906140351 31 74 0.0 1.6 0.00 0.00 0.00 66 1015.0
20260906135849 30 92 1.6 3.2 0.00 0.00 0.00 70 1014.8
20260906135343 30 95 1.6 1.6 0.00 0.00 0.00 69 1015.0
20260906134838 30 87 1.6 1.6 0.00 0.00 0.00 70 1014.8
20260906134333 30 79 0.0 0.0 0.00 0.00 0.00 72 1014.6
20260906133829 29 103 4.8 4.8 0.00 0.00 0.00 75 1014.7
20260906133324 29 85 1.6 3.2 0.00 0.00 0.00 73 1014.7
20260906132820 28 83 1.6 1.6 0.00 0.00 0.00 76 1014.8
20260906132315 28 75 3.2 3.2 0.00 0.00 0.00 77 1014.6
20260906131810 28 104 4.8 8.0 0.00 0.00 0.00 77 1014.8
20260906131306 28 89 0.0 1.6 0.00 0.00 0.00 78 1014.7
20260906130801 27 75 0.0 0.0 0.00 0.00 0.00 79 1014.8
20260906130256 27 103 3.2 3.2 0.00 0.00 0.00 80 1014.7
20260906125754 27 88 1.6 1.6 0.00 0.00 0.00 80 1014.7
20260906125253 27 74 1.6 1.6 0.00 0.00 0.00 80 1014.5
20260906124753 27 98 3.2 3.2 0.00 0.00 0.00 81 1014.3
20260906124249 27 94 1.6 1.6 0.00 0.00 0.00 82 1014.5
20260906123747 27 80 0.0 1.6 0.00 0.00 0.00 82 1014.5
20260906123242 26 90 1.6 1.6 0.00 0.00 0.00 83 1014.6
20260906122742 26 80 1.6 1.6 0.00 0.00 0.00 83 1014.2
20260906122237 26 88 1.6 1.6 0.00 0.00 0.00 84 1014.3
20260906121733 26 93 1.6 3.2 0.00 0.00 0.00 84 1014.3
20260906121230 26 88 1.6 1.6 0.00 0.00 0.00 84 1014.0
20260906120725 26 83 0.0 0.0 0.00 0.00 0.00 83 1013.9
20260906120222 26 99 1.6 3.2 0.00 0.00 0.00 83 1014.0
20260906115717 26 87 1.6 1.6 0.00 0.00 0.00 83 1013.8
20260906115212 26 129 3.2 3.2 0.00 0.00 0.00 82 1013.8
20260906114711 26 99 3.2 3.2 0.00 0.00 0.00 82 1014.0
20260906114207 26 89 0.0 1.6 0.00 0.00 0.00 82 1014.0
20260906113702 26 79 1.6 1.6 0.00 0.00 0.00 82 1014.1
20260906113201 26 87 0.0 0.0 0.00 0.00 0.00 82 1014.1
20260906112700 26 80 0.0 0.0 0.00 0.00 0.00 82 1014.0
20260906112158 26 101 0.0 0.0 0.00 0.00 0.00 82 1013.6
20260906111657 26 100 0.0 1.6 0.00 0.00 0.00 82 1013.8
20260906111152 26 86 0.0 0.0 0.00 0.00 0.00 81 1014.1
20260906110647 26 96 0.0 1.6 0.00 0.00 0.00 82 1013.8
20260906110142 26 77 0.0 0.0 0.00 0.00 0.00 82 1013.6
20260906105636 26 88 0.0 0.0 0.00 0.00 0.00 82 1013.4
20260906105133 26 87 0.0 0.0 0.00 0.00 0.00 81 1013.4
20260906104632 26 103 0.0 0.0 0.00 0.00 0.00 81 1013.4
20260906104131 27 127 1.6 3.2 0.00 0.00 0.00 81 1013.7
20260906103629 27 84 0.0 0.0 0.00 0.00 0.00 80 1013.4
20260906103125 27 87 0.0 0.0 0.00 0.00 0.00 80 1013.4
20260906102620 27 89 0.0 0.0 0.00 0.00 0.00 80 1013.2
20260906102115 27 87 0.0 0.0 0.00 0.00 0.00 80 1013.5
20260906101614 27 96 0.0 0.0 0.00 0.00 0.00 79 1013.6
20260906101109 27 85 0.0 0.0 0.00 0.00 0.00 79 1013.3
20260906100605 27 93 0.0 0.0 0.00 0.00 0.00 79 1013.2
20260906100105 27 87 0.0 0.0 0.00 0.00 0.00 78 1013.4
20260906095604 27 87 0.0 0.0 0.00 0.00 0.00 79 1013.4
20260906095100 27 84 0.0 0.0 0.00 0.00 0.00 79 1013.2
20260906094559 27 95 0.0 0.0 0.00 0.00 0.00 78 1013.3
20260906094055 27 100 0.0 1.6 0.00 0.00 0.00 78 1013.3
20260906093550 27 90 0.0 0.0 0.00 0.00 0.00 78 1013.1
20260906093045 27 87 0.0 0.0 0.00 0.00 0.00 78 1013.2
20260906092540 27 94 0.0 0.0 0.00 0.00 0.00 78 1013.1
20260906092035 27 80 0.0 0.0 0.00 0.00 0.00 78 1012.9
20260906091531 27 108 1.6 3.2 0.00 0.00 0.00 77 1013.2
20260906091027 27 118 0.0 1.6 0.00 0.00 0.00 77 1012.9
20260906090522 27 172 0.0 0.0 0.00 0.00 0.00 77 1013.0
20260906090017 27 75 1.6 3.2 0.00 0.00 0.00 77 1012.8
20260906085516 27 155 0.0 1.6 0.00 0.00 0.00 77 1012.7
20260906085015 27 97 1.6 3.2 0.00 0.00 0.00 77 1012.7
20260906084510 27 162 4.8 9.7 0.00 0.00 0.00 77 1012.9
20260906084009 27 82 0.0 0.0 0.00 0.00 0.00 77 1012.6
20260906083505 27 64 0.0 1.6 0.00 0.00 0.00 76 1012.6
20260906083004 27 92 0.0 0.0 0.00 0.00 0.00 76 1012.8
20260906082459 27 82 0.0 0.0 0.00 0.00 0.00 75 1012.8
20260906081955 28 88 0.0 0.0 0.00 0.00 0.00 75 1012.6
20260906081450 28 86 0.0 0.0 0.00 0.00 0.00 75 1012.7
20260906080946 28 85 0.0 0.0 0.00 0.00 0.00 75 1012.8
20260906080442 28 140 0.0 0.0 0.00 0.00 0.00 75 1012.7
20260906075937 28 89 0.0 0.0 0.00 0.00 0.00 74 1012.7
20260906075432 28 141 4.8 4.8 0.00 0.00 0.00 74 1012.8
20260906074927 28 137 3.2 3.2 0.00 0.00 0.00 73 1012.7
20260906074427 28 85 0.0 0.0 0.00 0.00 0.00 74 1012.6
20260906073926 28 100 0.0 1.6 0.00 0.00 0.00 73 1012.7
20260906073420 28 52 0.0 0.0 0.00 0.00 0.00 73 1012.9
20260906072917 28 95 0.0 0.0 0.00 0.00 0.00 72 1012.8
20260906072412 28 68 0.0 1.6 0.00 0.00 0.00 72 1012.9
20260906071908 28 83 0.0 0.0 0.00 0.00 0.00 71 1013.0
20260906071403 28 79 0.0 0.0 0.00 0.00 0.00 71 1013.0
20260906070859 28 85 0.0 0.0 0.00 0.00 0.00 71 1013.1
20260906070355 28 82 0.0 0.0 0.00 0.00 0.00 71 1013.2
20260906065850 28 56 0.0 0.0 0.00 0.00 0.00 70 1013.1
20260906065344 28 99 0.0 0.0 0.00 0.00 0.00 70 1013.5
20260906064840 28 82 0.0 0.0 0.00 0.00 0.00 70 1013.0
20260906064336 28 98 3.2 4.8 0.00 0.00 0.00 70 1013.1
20260906063831 28 73 0.0 0.0 0.00 0.00 0.00 69 1013.1
20260906063326 29 87 0.0 0.0 0.00 0.00 0.00 69 1013.2
20260906062821 29 153 1.6 3.2 0.00 0.00 0.00 69 1013.2
20260906062320 29 93 0.0 0.0 0.00 0.00 0.00 69 1012.9
20260906061816 29 87 0.0 0.0 0.00 0.00 0.00 69 1012.9
20260906061312 29 90 0.0 0.0 0.00 0.00 0.00 68 1012.9
20260906060807 29 88 0.0 1.6 0.00 0.00 0.00 68 1013.0
20260906060305 29 157 4.8 8.0 0.00 0.00 0.00 68 1013.2
20260906055800 29 136 1.6 1.6 0.00 0.00 0.00 68 1013.1
20260906055255 29 127 0.0 1.6 0.00 0.00 0.00 68 1013.2
20260906054750 29 67 0.0 1.6 0.00 0.00 0.00 68 1013.1
20260906054246 30 97 0.0 0.0 0.00 0.00 0.00 67 1012.9
20260906053743 30 87 0.0 0.0 0.00 0.00 0.00 67 1013.4
20260906053238 30 94 0.0 0.0 0.00 0.00 0.00 67 1013.3
20260906052733 30 96 0.0 0.0 0.00 0.00 0.00 66 1013.3
20260906052229 30 96 1.6 1.6 0.00 0.00 0.00 66 1013.2
20260906051726 30 74 0.0 0.0 0.00 0.00 0.00 66 1013.1
20260906051225 30 86 0.0 0.0 0.00 0.00 0.00 66 1013.2
20260906050721 30 118 1.6 1.6 0.00 0.00 0.00 66 1013.3
20260906050216 30 85 0.0 1.6 0.00 0.00 0.00 65 1013.2
20260906045714 30 104 4.8 4.8 0.00 0.00 0.00 65 1013.1
20260906045209 30 156 9.7 12.9 0.00 0.00 0.00 65 1013.2
20260906044705 30 87 0.0 1.6 0.00 0.00 0.00 65 1013.4
20260906044200 30 194 9.7 11.3 0.00 0.00 0.00 64 1013.0
20260906043656 30 99 1.6 3.2 0.00 0.00 0.00 64 1013.0
20260906043152 30 104 4.8 9.7 0.00 0.00 0.00 64 1013.1
20260906042651 30 159 3.2 3.2 0.00 0.00 0.00 64 1013.0
20260906042145 30 53 3.2 3.2 0.00 0.00 0.00 63 1012.9
20260906041641 30 32 1.6 3.2 0.00 0.00 0.00 63 1013.2
20260906041136 30 96 0.0 0.0 0.00 0.00 0.00 63 1013.1
20260906040631 30 146 4.8 9.7 0.00 0.00 0.00 62 1013.0
20260906040127 30 157 4.8 9.7 0.00 0.00 0.00 62 1013.2
20260906035622 31 163 3.2 4.8 0.00 0.00 0.00 62 1013.2
20260906035118 31 136 3.2 4.8 0.00 0.00 0.00 61 1013.1
20260906034618 31 123 1.6 1.6 0.00 0.00 0.00 61 1013.0
20260906034112 31 135 8.0 9.7 0.00 0.00 0.00 61 1013.0
20260906033608 31 187 8.0 12.9 0.00 0.00 0.00 60 1013.0
20260906033103 31 45 0.0 0.0 0.00 0.00 0.00 59 1012.9
20260906032600 31 84 3.2 3.2 0.00 0.00 0.00 59 1012.8
20260906032059 31 149 1.6 3.2 0.00 0.00 0.00 59 1013.1
20260906031555 31 135 4.8 4.8 0.00 0.00 0.00 58 1013.1
20260906031050 31 116 8.0 11.3 0.00 0.00 0.00 58 1013.2
20260906030549 31 175 8.0 9.7 0.00 0.00 0.00 58 1013.1
20260906030049 31 92 6.4 9.7 0.00 0.00 0.00 58 1013.0
20260906025550 31 141 6.4 9.7 0.00 0.00 0.00 57 1013.1
20260906025048 31 172 11.3 12.9 0.00 0.00 0.00 57 1013.0
20260906024544 31 196 4.8 8.0 0.00 0.00 0.00 57 1013.0
20260906024043 31 188 11.3 12.9 0.00 0.00 0.00 57 1012.9
20260906023539 31 132 9.7 16.1 0.00 0.00 0.00 57 1012.8
20260906023034 32 162 6.4 11.3 0.00 0.00 0.00 57 1012.6
20260906022529 32 181 6.4 11.3 0.00 0.00 0.00 56 1012.6
20260906022025 32 163 8.0 12.9 0.00 0.00 0.00 56 1012.4
20260906021520 32 85 1.6 1.6 0.00 0.00 0.00 55 1012.3
20260906021014 32 171 8.0 11.3 0.00 0.00 0.00 55 1012.1
20260906020513 32 129 11.3 14.5 0.00 0.00 0.00 55 1012.4
20260906020013 32 171 8.0 11.3 0.00 0.00 0.00 54 1012.1
20260906015507 33 161 11.3 12.9 0.00 0.00 0.00 53 1012.2
20260906015007 33 156 8.0 14.5 0.00 0.00 0.00 51 1012.1
20260906014501 33 191 11.3 14.5 0.00 0.00 0.00 51 1012.1
20260906013957 33 130 12.9 16.1 0.00 0.00 0.00 51 1011.9
20260906013453 34 217 17.7 24.1 0.00 0.00 0.00 50 1011.9
20260906012948 34 145 14.5 20.9 0.00 0.00 0.00 49 1011.5
20260906012443 35 137 8.0 9.7 0.00 0.00 0.00 48 1011.5
20260906011942 35 129 4.8 9.7 0.00 0.00 0.00 44 1011.6
20260906011438 35 99 1.6 3.2 0.00 0.00 0.00 44 1011.2
20260906010933 35 87 0.0 1.6 0.00 0.00 0.00 44 1011.2
20260906010428 35 90 8.0 8.0 0.00 0.00 0.00 44 1011.4
20260906005924 35 104 9.7 12.9 0.00 0.00 0.00 43 1011.2
20260906005424 35 174 4.8 8.0 0.00 0.00 0.00 43 1011.2
20260906004922 36 106 9.7 11.3 0.00 0.00 0.00 43 1011.1
20260906004416 35 134 6.4 9.7 0.00 0.00 0.00 42 1011.1
20260906003912 36 112 3.2 3.2 0.00 0.00 0.00 42 1011.2
20260906003407 36 121 1.6 3.2 0.00 0.00 0.00 42 1011.2
20260906002903 36 136 9.7 12.9 0.00 0.00 0.00 41 1011.1
20260906002402 36 17 1.6 3.2 0.00 0.00 0.00 40 1011.2
20260906001858 36 100 0.0 1.6 0.00 0.00 0.00 41 1011.2
20260906001353 36 124 8.0 11.3 0.00 0.00 0.00 40 1011.3
20260906000848 36 88 3.2 4.8 0.00 0.00 0.00 41 1011.2
20260906000348 36 164 6.4 8.0 0.00 0.00 0.00 41 1011.1
20260905235843 36 110 6.4 9.7 0.00 0.00 0.00 41 1011.1
20260905235337 37 100 1.6 3.2 0.00 0.00 0.00 39 1010.9
20260905234833 36 90 3.2 4.8 0.00 0.00 0.00 40 1010.7
20260905234328 38 125 1.6 3.2 0.00 0.00 0.00 38 1010.7
20260905233823 37 100 0.0 1.6 0.00 0.00 0.00 38 1010.9
20260905233317 37 168 4.8 8.0 0.00 0.00 0.00 39 1010.9